Regional Weather Roundup
Issued by NWS

Home | Current Version | Previous Version | Graphics & Text | Print | Product List | Glossary On
Versions: 1 2 3 4 5 6 7 8 9 10 11 12 13 14 15 16 17 18 19 20 21 22 23 24 25 26 27 28 29 30 31 32 33 34 35 36 37 38 39 40 41 42 43 44 45 46 47 48 49 50
000
ASUS43 KDMX 290701
RWRIA

WEATHER ROUNDUP FOR IOWA
NATIONAL WEATHER SERVICE DES MOINES IA
200 AM CDT MON MAY 29 2017

NOTE: "FAIR" INDICATES FEW OR NO CLOUDS BELOW 12,000 FEET WITH NO
SIGNIFICANT WEATHER AND/OR OBSTRUCTIONS TO VISIBILITY.

* - THESE STATIONS ARE NOT NWS STATIONS...THUS NOT UNDER NWS
QUALITY CONTROL.  THEY ALSO DO NOT REPORT WEATHER SUCH
AS PRECIPITATION OR FOG.

IAZ001>003-012>014-020>022-031>034-043>046-290800-
   NORTHWEST IOWA

CITY           SKY/WX    TMP DP  RH WIND       PRES   REMARKS
CARROLL *      CLEAR     55  48  76 W5        29.84S
DENISON *      CLEAR     54  45  71 CALM      29.87S
LE MARS *      CLEAR     50  46  87 CALM      29.90S
ORANGE CITY *  CLEAR     52  46  82 NW6       29.89S
SHELDON *      PTCLDY    52  46  82 W8        29.87S
SIOUX CITY     CLEAR     54  47  77 N7        29.89R
SPENCER        PTCLDY    52  48  86 W9        29.87R
STORM LAKE *   CLEAR     57  45  62 NW13      29.87S
$$

IAZ055>058-069>071-079>083-090>094-290800-
   SOUTHWEST IOWA

CITY           SKY/WX    TMP DP  RH WIND       PRES   REMARKS
ATLANTIC *     CLEAR     57  46  67 NW7       29.86R
AUDUBON *      CLEAR     52  46  82 CALM      29.87R
CLARINDA *     CLEAR     52  50  93 SW3       29.90S
COUNCIL BLFS * CLEAR     61  45  55 W9        29.88R
CRESTON *      CLEAR     57  45  62 SW8       29.87S
HARLAN  *      MOCLDY    57  46  67 W8        29.90R
LAMONI         PTCLDY    58  45  62 SW6       29.87S
RED OAK *      CLEAR     54  50  87 CALM      29.87S
SHENANDOAH *   CLEAR     55  48  76 SW3       29.88S
$$

IAZ047>049-059>061-072>074-084-290800-
   CENTRAL IOWA

CITY           SKY/WX    TMP DP  RH WIND       PRES   REMARKS
AMES           CLEAR     53  49  86 W8        29.82S
ANKENY *       PTCLDY    54  48  82 CALM      29.83S
BOONE *        CLEAR     54 N/A N/A SW7       29.81S
CHARITON *     CLEAR     59  45  58 SW7       29.85R
DES MOINES     CLEAR     59  45  59 SW7       29.83F
GRINNELL*      CLEAR     58  45  62 SW5       29.83F
KNOXVILLE *    CLEAR     57  46  67 W7        29.82S
MARSHALLTOWN   CLEAR     56  46  69 SW6       29.79F
NEWTON *       PTCLDY    59  43  55 CALM      29.81F
PELLA *        CLEAR     58  47  68 CALM      29.83F
PERRY *          N/A     54  50  86 W9        29.83F
$$

IAZ004>006-015-016-023>025-035-036-290800-
   NORTH CENTRAL IOWA

CITY           SKY/WX    TMP DP  RH WIND       PRES   REMARKS
ALGONA *       CLEAR     59  45  58 NW14      29.84R
CLARION *      CLEAR     57  46  67 NW9       29.82S
ESTHERVILLE    PTCLDY    54  47  77 W14       29.84R
FORT DODGE *   CLEAR     52  45  76 CALM      29.85R
MASON CITY     CLEAR     55  43  63 W12       29.81S
FOREST CITY *    N/A     55  36  47 W13       29.81S
WEBSTER CITY * CLEAR     55  45  67 W9        29.81R
IOWA FALLS *     N/A     55  46  71 W7        29.82S
$$

IAZ007>011-017>019-026>030-037>042-050>054-066-290800-
   NORTHEAST IOWA

CITY           SKY/WX    TMP DP  RH WIND       PRES   REMARKS
CEDAR RAPIDS   CLEAR     54  47  77 W7        29.79F
CHARLES CITY * PTCLDY    57  41  54 W7        29.78F
CLINTON *      CLEAR     56  52  86 W7        29.79S
DECORAH *      PTCLDY    57  43  58 VRB3      29.75F
DUBUQUE        CLEAR     56  45  66 NW8       29.78S
MONTICELLO *   CLEAR     57  46  67 CALM      29.78F
OELWEIN *      CLOUDY    57  45  62 W5        29.79S
WATERLOO       CLEAR     57  42  57 W7        29.78S
$$

IAZ064-065-067-068-078-290800-
   EAST CENTRAL IOWA

CITY           SKY/WX    TMP DP  RH WIND       PRES   REMARKS
DAVENPORT      CLEAR     58  50  75 W7        29.80S
IOWA CITY      CLEAR     56  47  71 W5        29.81F
MT. PLEASANT * CLEAR     56  47  74 SW6       29.84R
MUSCATINE *    CLEAR     59  46  63 CALM      29.81S
QUAD CITIES    CLEAR     58  50  75 SW5       29.79F
$$

IAZ062-063-075>077-085>089-095>099-290800-
   SOUTHEAST IOWA

CITY           SKY/WX    TMP DP  RH WIND       PRES   REMARKS
BURLINGTON     CLEAR     58  52  80 SW6       29.84R
FAIRFIELD *    PTCLDY    57  48  72 SW6       29.83R
FORT MADISON * CLEAR     61  50  67 S5        29.87R
KEOKUK *       CLEAR     59  50  72 SW5       29.86R
OSKALOOSA *      N/A     56  46  70 W7        29.83S
OTTUMWA        CLEAR     57  47  69 SW5       29.83S
WASHINGTON *   CLEAR     57  48  72 W6        29.83S
$$

ABBREVIATIONS USED IN REMARKS
   TC - TEMPERATURES IN CELSIUS
  WCI - WIND CHILL INDEX
   HX - HEAT INDEX
  VSB - VISIBILITY
$$




USA.gov is the U.S. government's official web portal to all federal, state and local government web resources and services.